Regional Weather Roundup
Issued by NWS State College, PA

Home | Current Version | Previous Version | Text Only | Print | Product List | Glossary On
Versions: 1 2 3 4 5 6 7 8 9 10 11 12 13 14 15 16 17 18 19 20 21 22 23 24 25 26 27 28 29 30 31 32 33 34 35 36 37 38 39 40 41 42 43 44 45 46 47 48 49 50
915
ASUS41 KCTP 231610
RWRCTP

REGIONAL WEATHER ROUNDUP
NATIONAL WEATHER SERVICE STATE COLLEGE PA
1200 PM EDT SAT JUL 23 2016

Note: "fair" indicates few or no clouds below 12,000 feet with no
significant weather and/or obstructions to visibility.

* = STATION THAT DOES NOT REPORT PRECIPITATION /E.G. RAIN...SNOW...ETC/
    THUNDER OR FOG.

PAZ002>004-007>009-013>016-020>023-029>032-231700-
WESTERN PENNSYLVANIA

CITY           SKY/WX    TMP DP  RH WIND       PRES   REMARKS
ERIE           SUNNY     85  71  63 NW10      29.98R
MEADVILLE      SUNNY     83  61  47 W5        30.02F
FRANKLIN*      MOSUNNY   84  66  54 CALM      30.05R
NEW CASTLE     FAIR      86  70  58 CALM      30.01F
BEAVER COUNTY  PTSUNNY   88  68  51 N6        30.02
BUTLER*        MOSUNNY   88  72  58 W7        30.04F
PITTSBURGH INT MOSUNNY   87  69  54 VRB5      30.01F
PITTSBURGH     CLOUDY    84  70  62 CALM      30.02F
INDIANA*       PTSUNNY   82  73  74 VRB6      30.05F
LATROBE        PTSUNNY   82  73  74 SW9       30.04F
WASHINGTON CO* MOSUNNY   86  70  58 CALM      30.04S
$$

PAZ004>006-010>012-017>019-024>028-033>037-041-042-045-046-049>053-231700-
CENTRAL PENNSYLVANIA

CITY           SKY/WX    TMP DP  RH WIND       PRES   REMARKS
BRADFORD       SUNNY     82  57  42 NW15      30.04S
DUBOIS         MOSUNNY   85  66  53 SW10      30.02F
CLEARFIELD     PTSUNNY   87  68  52 W9        30.01F
JOHNSTOWN      PTSUNNY   80  67  64 NW10      30.07S
ALTOONA        MOSUNNY   89  66  46 NW10G20   30.02S
STATE COLLEGE  MOSUNNY   86  70  58 SW13      29.98F
WILLIAMSPORT   SUNNY     92  56  29 W12       29.90F
SELINSGROVE    MOSUNNY   89  67  47 VRB3      29.93F
FT INDIANTOWN  SUNNY     91  66  43 VRB6      29.92F
CAPITAL CITY   MOSUNNY   94  67  41 NW12      29.92F HX  97
HARRISBURG     MOSUNNY   92  72  51 W6        29.91F HX  99
YORK           PTSUNNY   89  74  60 SW8       29.95S HX  98
$$

PAZ038>040-043-044-047-048-054-055-060>062-067>071-231700-
EASTERN PENNSYLVANIA

CITY           SKY/WX    TMP DP  RH WIND       PRES   REMARKS
SCRANTON       SUNNY     91  56  30 NW15G21   29.92S
MOUNT POCONO   SUNNY     83  32  16 NW14G22   29.97F
ALLENTOWN      SUNNY     91  61  36 W12G18    29.91S
QUAKERTOWN*    SUNNY     91  63  38 CALM      29.92F
READING        SUNNY     94  61  33 W10       29.90F
LANCASTER      SUNNY     89  71  55 W9        29.93S HX  95
COATESVILLE    MOSUNNY   86  72  62 W9        29.96S
POTTSTOWN      SUNNY     91  65  41 NW12G17   29.92S
BLUE BELL      SUNNY     90  66  45 NW5       29.90S
DOYLESTOWN     SUNNY     90  61  37 W8        29.90S
WILLOW GROVE   NOT AVBL
NORTH PHILA    SUNNY     93  69  45 W12       29.91S HX  98
PHILADELPHIA   MOSUNNY   90  70  51 W12       29.91S HX  95
$$




USA.gov is the U.S. government's official web portal to all federal, state and local government web resources and services.